WXM80 ListenWXM80 Stop

You find our weather info also at:

UK Metoffice

WeatherCloud

Weather Underground

Northeastern Weather Network

AWEKAS

Citizen Weather Observer Program (CWOP)

HAMweather, WeatherForYou, PWS Weather


Weather Underground History page Text

Daily Summary for April 6, 2016 Units:  English    Metric   Both
« Previous Day
Next Day »
Daily Weekly Monthly Yearly Custom
  High: Low: Average:
Temperature: 48.9 °F 28.9 °F 39.8 °F
Dew Point: 42.5 °F 13.2 °F 24.6 °F
Humidity: 88 % 37 % 55 %
Wind Speed: 11.8 mph 0.0 mph 3.6 mph
Wind Gust: 18.4 mph - -
Wind:- - South
Pressure: 30.39 in 29.97 in -
Precipitation: 0.01 in    
Historical Graphs
 
 
Tabular Data for April 6, 2016
Time Temperature Dew Point Pressure Wind Wind Speed Wind Gust Humidity Rainfall Rate (Hourly)
00:00 34.2 °F 14.5 °F 30.35 in NNW 2.5 mph 4.6 mph 44 % 0.00 in
00:05 34.2 °F 13.5 °F 30.35 in North 3.5 mph 6.0 mph 42 % 0.00 in
00:10 34.2 °F 14.0 °F 30.35 in NNE 3.0 mph 4.6 mph 43 % 0.00 in
00:15 34.2 °F 14.0 °F 30.35 in NNW 3.6 mph 4.6 mph 43 % 0.01 in
00:20 34.2 °F 14.0 °F 30.35 in NW 2.8 mph 3.5 mph 43 % 0.01 in
00:25 34.2 °F 14.0 °F 30.35 in WNW 3.5 mph 4.6 mph 43 % 0.01 in
00:30 34.1 °F 13.9 °F 30.35 in NNW 1.2 mph 3.5 mph 43 % 0.01 in
00:36 34.1 °F 13.4 °F 30.35 in North 2.5 mph 4.0 mph 42 % 0.01 in
00:41 34.0 °F 13.8 °F 30.35 in North 2.1 mph 4.0 mph 43 % 0.01 in
00:46 34.0 °F 14.9 °F 30.35 in WNW 3.5 mph 5.8 mph 45 % 0.01 in
00:51 33.9 °F 15.3 °F 30.35 in North 2.1 mph 6.9 mph 46 % 0.01 in
00:56 33.9 °F 14.8 °F 30.35 in NNW 4.2 mph 8.1 mph 45 % 0.01 in
01:01 33.9 °F 13.2 °F 30.34 in NW 3.8 mph 8.1 mph 42 % 0.01 in
01:06 33.8 °F 14.2 °F 30.35 in WNW 2.2 mph 5.0 mph 44 % 0.01 in
01:11 33.8 °F 14.2 °F 30.35 in NNW 6.3 mph 11.5 mph 44 % 0.00 in
01:16 33.8 °F 14.7 °F 30.35 in NNW 3.9 mph 5.0 mph 45 % 0.00 in
01:21 33.8 °F 14.2 °F 30.35 in WNW 1.4 mph 5.8 mph 44 % 0.00 in
01:27 33.8 °F 14.2 °F 30.35 in NW 4.0 mph 6.9 mph 44 % 0.00 in
01:32 33.7 °F 14.1 °F 30.35 in NNW 2.8 mph 6.0 mph 44 % 0.00 in
01:42 33.5 °F 14.9 °F 30.34 in WNW 1.9 mph 6.0 mph 46 % 0.00 in
01:47 33.3 °F 15.2 °F 30.35 in NNW 3.8 mph 6.9 mph 47 % 0.00 in
01:52 33.2 °F 14.1 °F 30.35 in NW 3.8 mph 6.9 mph 45 % 0.00 in
01:57 33.1 °F 14.0 °F 30.35 in NW 6.0 mph 10.4 mph 45 % 0.00 in
02:02 33.1 °F 14.0 °F 30.35 in NW 2.2 mph 5.8 mph 45 % 0.00 in
02:12 32.9 °F 13.9 °F 30.35 in NW 1.3 mph 4.6 mph 45 % 0.00 in
02:18 32.9 °F 14.4 °F 30.35 in North 2.2 mph 6.9 mph 46 % 0.00 in
02:23 32.8 °F 14.3 °F 30.35 in NNW 1.7 mph 4.6 mph 46 % 0.00 in
02:33 32.6 °F 14.1 °F 30.35 in WNW 1.2 mph 3.5 mph 46 % 0.00 in
02:38 32.5 °F 14.0 °F 30.36 in WNW 0.9 mph 5.0 mph 46 % 0.00 in
02:43 32.5 °F 14.5 °F 30.35 in NNW 2.3 mph 9.2 mph 47 % 0.00 in
02:48 32.4 °F 14.4 °F 30.35 in NNW 3.2 mph 9.2 mph 47 % 0.00 in
02:53 32.3 °F 14.3 °F 30.35 in NNW 2.9 mph 4.6 mph 47 % 0.00 in
03:03 32.1 °F 14.6 °F 30.35 in NNW 1.2 mph 3.5 mph 48 % 0.00 in
03:09 32.1 °F 14.6 °F 30.35 in NNW 2.1 mph 6.9 mph 48 % 0.00 in
03:19 31.9 °F 13.9 °F 30.36 in NNW 3.4 mph 8.1 mph 47 % 0.00 in
03:24 31.9 °F 13.4 °F 30.36 in North 3.6 mph 5.8 mph 46 % 0.00 in
03:29 31.8 °F 13.3 °F 30.36 in NW 3.5 mph 4.6 mph 46 % 0.00 in
03:34 31.7 °F 13.3 °F 30.35 in NW 1.2 mph 3.5 mph 46 % 0.00 in
03:39 31.7 °F 13.3 °F 30.35 in North 2.2 mph 3.5 mph 46 % 0.00 in
03:44 31.6 °F 13.2 °F 30.34 in NNW 2.7 mph 6.9 mph 46 % 0.00 in
03:49 31.6 °F 13.7 °F 30.35 in North 2.1 mph 4.6 mph 47 % 0.00 in
03:54 31.5 °F 14.5 °F 30.34 in North 2.9 mph 3.5 mph 49 % 0.00 in
04:00 31.4 °F 13.9 °F 30.34 in NNE 4.5 mph 4.6 mph 48 % 0.00 in
04:05 31.3 °F 13.4 °F 30.34 in North 2.4 mph 3.5 mph 47 % 0.00 in
04:10 31.2 °F 14.2 °F 30.34 in North 4.4 mph 5.8 mph 49 % 0.00 in
04:15 31.2 °F 13.8 °F 30.35 in NNE 2.9 mph 4.6 mph 48 % 0.00 in
04:20 31.1 °F 13.7 °F 30.34 in NNE 1.3 mph 2.3 mph 48 % 0.00 in
04:25 31.0 °F 13.6 °F 30.34 in NNE 2.6 mph 3.5 mph 48 % 0.00 in
04:30 30.9 °F 13.5 °F 30.34 in North 1.3 mph 4.0 mph 48 % 0.00 in
04:35 30.8 °F 13.9 °F 30.35 in North 2.0 mph 4.0 mph 49 % 0.00 in
04:40 30.8 °F 14.3 °F 30.34 in NNW 1.6 mph 3.5 mph 50 % 0.00 in
04:45 30.7 °F 14.7 °F 30.34 in NNE 3.1 mph 4.6 mph 51 % 0.00 in
04:51 30.7 °F 15.1 °F 30.34 in NNE 3.0 mph 5.8 mph 52 % 0.00 in
04:56 30.6 °F 15.0 °F 30.34 in NNE 4.4 mph 8.1 mph 52 % 0.00 in
05:01 30.6 °F 15.0 °F 30.34 in NNE 4.0 mph 5.8 mph 52 % 0.00 in
05:06 30.6 °F 15.5 °F 30.34 in NNE 2.5 mph 3.5 mph 53 % 0.00 in
05:11 30.6 °F 15.9 °F 30.34 in NE 1.6 mph 3.5 mph 54 % 0.00 in
05:21 30.6 °F 15.9 °F 30.34 in NE 2.6 mph 3.5 mph 54 % 0.00 in
05:26 30.6 °F 15.0 °F 30.34 in NE 1.0 mph 3.5 mph 52 % 0.00 in
05:31 30.6 °F 15.5 °F 30.34 in ENE 2.1 mph 3.5 mph 53 % 0.00 in
05:36 30.5 °F 15.8 °F 30.34 in NNE 2.9 mph 4.6 mph 54 % 0.00 in
05:42 30.5 °F 16.2 °F 30.34 in ENE 1.6 mph 4.0 mph 55 % 0.00 in
05:47 30.5 °F 16.7 °F 30.34 in Calm   1.2 mph 56 % 0.00 in
05:52 30.4 °F 17.0 °F 30.34 in ENE 0.3 mph 3.5 mph 57 % 0.00 in
05:57 30.3 °F 17.7 °F 30.35 in Calm     59 % 0.00 in
06:02 30.2 °F 17.6 °F 30.35 in Calm     59 % 0.00 in
06:07 30.1 °F 17.9 °F 30.35 in Calm     60 % 0.00 in
06:12 29.9 °F 17.3 °F 30.35 in NE 0.7 mph 2.3 mph 59 % 0.00 in
06:17 29.8 °F 17.6 °F 30.36 in Calm     60 % 0.00 in
06:22 29.6 °F 17.8 °F 30.35 in NE 1.0 mph 3.5 mph 61 % 0.00 in
06:27 29.4 °F 18.0 °F 30.35 in NE 0.1 mph   62 % 0.00 in
06:38 29.1 °F 18.4 °F 30.35 in Calm     64 % 0.00 in
06:43 29.0 °F 18.3 °F 30.35 in Calm     64 % 0.00 in
06:48 28.9 °F 18.2 °F 30.35 in Calm   1.0 mph 64 % 0.00 in
06:53 28.9 °F 19.0 °F 30.35 in NE 0.5 mph 1.2 mph 66 % 0.00 in
06:58 28.9 °F 19.0 °F 30.35 in NE 0.9 mph 2.0 mph 66 % 0.00 in
07:03 29.0 °F 19.1 °F 30.35 in NE 0.1 mph 2.3 mph 66 % 0.00 in
07:13 29.3 °F 19.3 °F 30.34 in NE 0.1 mph   66 % 0.00 in
07:18 29.4 °F 19.1 °F 30.35 in NE 0.3 mph 1.2 mph 65 % 0.00 in
07:24 29.6 °F 18.9 °F 30.35 in NE 0.2 mph 1.2 mph 64 % 0.00 in
07:29 30.0 °F 18.2 °F 30.35 in Calm     61 % 0.00 in
07:34 30.3 °F 18.1 °F 30.35 in Calm     60 % 0.00 in
07:39 30.8 °F 17.7 °F 30.35 in Calm   1.2 mph 58 % 0.00 in
07:44 31.2 °F 17.3 °F 30.35 in Calm     56 % 0.00 in
07:49 31.5 °F 17.6 °F 30.36 in Calm   1.2 mph 56 % 0.00 in
07:59 32.3 °F 18.8 °F 30.38 in Calm     57 % 0.00 in
08:04 33.0 °F 18.6 °F 30.38 in ENE 0.7 mph 1.2 mph 55 % 0.00 in
08:09 33.8 °F 18.5 °F 30.38 in SE 1.7 mph 3.5 mph 53 % 0.00 in
08:15 34.7 °F 19.3 °F 30.38 in SE 1.4 mph 2.3 mph 53 % 0.00 in
08:20 35.4 °F 19.0 °F 30.37 in SE 0.7 mph 2.3 mph 51 % 0.00 in
08:25 36.1 °F 19.2 °F 30.37 in SE 0.8 mph 2.3 mph 50 % 0.00 in
08:30 36.6 °F 19.2 °F 30.37 in East 1.2 mph 2.3 mph 49 % 0.00 in
08:35 37.1 °F 19.2 °F 30.37 in East 0.1 mph 1.0 mph 48 % 0.00 in
08:40 37.5 °F 19.1 °F 30.37 in ENE 1.4 mph 3.5 mph 47 % 0.00 in
08:45 37.9 °F 19.9 °F 30.37 in ENE 0.8 mph 3.5 mph 48 % 0.00 in
08:50 38.0 °F 19.0 °F 30.38 in NE 2.4 mph 3.5 mph 46 % 0.00 in
08:55 38.2 °F 20.2 °F 30.38 in Calm   1.2 mph 48 % 0.00 in
09:00 38.8 °F 19.2 °F 30.38 in South 0.9 mph 2.3 mph 45 % 0.00 in
09:06 39.3 °F 19.7 °F 30.38 in South 0.1 mph 1.2 mph 45 % 0.00 in
09:11 40.0 °F 19.3 °F 30.38 in SSW 1.3 mph 3.5 mph 43 % 0.00 in
09:16 40.4 °F 20.7 °F 30.38 in SSW 0.1 mph 1.2 mph 45 % 0.00 in
09:21 40.7 °F 18.2 °F 30.38 in South 0.2 mph 1.2 mph 40 % 0.00 in
09:26 40.9 °F 22.7 °F 30.38 in NNE 1.2 mph 3.5 mph 48 % 0.00 in
09:31 41.4 °F 22.1 °F 30.37 in NNE 3.4 mph 4.6 mph 46 % 0.00 in
09:36 41.8 °F 23.0 °F 30.38 in East 2.3 mph 3.5 mph 47 % 0.00 in
09:41 41.9 °F 25.1 °F 30.38 in ENE 0.3 mph 1.2 mph 51 % 0.00 in
09:46 41.8 °F 23.0 °F 30.39 in ENE 0.1 mph 1.2 mph 47 % 0.00 in
09:51 41.7 °F 23.9 °F 30.39 in NW 4.2 mph 8.1 mph 49 % 0.00 in
09:57 41.2 °F 24.4 °F 30.39 in NNW 4.8 mph 5.8 mph 51 % 0.00 in
10:02 41.2 °F 24.9 °F 30.39 in NNE 3.1 mph 4.6 mph 52 % 0.00 in
10:07 41.3 °F 25.0 °F 30.39 in NNE 3.1 mph 7.0 mph 52 % 0.00 in
10:12 41.6 °F 25.3 °F 30.39 in NE 3.5 mph 4.6 mph 52 % 0.00 in
10:17 42.0 °F 25.6 °F 30.39 in NNE 3.9 mph 6.9 mph 52 % 0.00 in
10:22 41.5 °F 25.6 °F 30.38 in North 3.7 mph 5.8 mph 53 % 0.00 in
10:27 41.6 °F 26.2 °F 30.38 in NNW 2.9 mph 9.2 mph 54 % 0.00 in
10:32 41.8 °F 26.4 °F 30.38 in NNE 3.6 mph 6.9 mph 54 % 0.00 in
10:37 41.9 °F 25.5 °F 30.38 in NE 2.8 mph 5.8 mph 52 % 0.00 in
10:42 41.8 °F 25.4 °F 30.38 in NE 3.8 mph 5.8 mph 52 % 0.00 in
10:48 41.7 °F 25.4 °F 30.38 in NNE 4.6 mph 6.9 mph 52 % 0.00 in
10:53 41.7 °F 26.3 °F 30.37 in NNE 4.1 mph 6.9 mph 54 % 0.00 in
10:58 41.8 °F 25.9 °F 30.37 in North 4.0 mph 6.9 mph 53 % 0.00 in
11:03 42.0 °F 25.6 °F 30.37 in ENE 3.7 mph 5.8 mph 52 % 0.00 in
11:13 41.9 °F 26.0 °F 30.36 in NE 1.9 mph 3.5 mph 53 % 0.00 in
11:18 41.0 °F 24.7 °F 30.36 in East 1.9 mph 3.5 mph 52 % 0.00 in
11:23 40.7 °F 25.8 °F 30.36 in NE 1.6 mph 3.5 mph 55 % 0.00 in
11:28 41.1 °F 25.3 °F 30.35 in NE 2.6 mph 3.5 mph 53 % 0.00 in
11:33 41.9 °F 26.9 °F 30.35 in NNE 4.6 mph 5.0 mph 55 % 0.00 in
11:39 42.6 °F 27.1 °F 30.34 in NNE 2.5 mph 4.0 mph 54 % 0.00 in
11:44 43.6 °F 29.4 °F 30.34 in East 3.6 mph 6.9 mph 57 % 0.00 in
11:49 43.8 °F 26.3 °F 30.34 in ENE 2.6 mph 3.5 mph 50 % 0.00 in
11:54 43.8 °F 27.8 °F 30.33 in NE 3.9 mph 4.6 mph 53 % 0.00 in
12:04 42.9 °F 26.9 °F 30.33 in ENE 3.7 mph 8.1 mph 53 % 0.00 in
12:14 43.4 °F 27.4 °F 30.32 in North 2.7 mph 4.0 mph 53 % 0.00 in
12:19 43.6 °F 27.1 °F 30.32 in East 1.3 mph 3.0 mph 52 % 0.00 in
12:25 44.5 °F 29.8 °F 30.31 in North 5.2 mph 8.0 mph 56 % 0.00 in
12:30 45.5 °F 23.7 °F 30.31 in SSW 4.7 mph 9.2 mph 42 % 0.00 in
12:40 45.9 °F 24.6 °F 30.31 in SW 5.3 mph 11.5 mph 43 % 0.00 in
12:45 46.8 °F 23.1 °F 30.29 in SW 4.0 mph 10.0 mph 39 % 0.00 in
12:50 47.1 °F 24.0 °F 30.29 in WSW 3.5 mph 5.8 mph 40 % 0.00 in
12:55 47.7 °F 24.5 °F 30.29 in South 6.6 mph 10.0 mph 40 % 0.00 in
13:00 48.1 °F 24.3 °F 30.29 in South 6.9 mph 14.0 mph 39 % 0.00 in
13:05 47.8 °F 23.4 °F 30.29 in SSW 5.9 mph 10.4 mph 38 % 0.00 in
13:10 48.0 °F 24.8 °F 30.28 in SW 4.1 mph 10.4 mph 40 % 0.00 in
13:16 48.4 °F 25.2 °F 30.28 in SW 7.4 mph 10.0 mph 40 % 0.00 in
13:21 48.8 °F 23.6 °F 30.28 in SSE 2.9 mph 5.0 mph 37 % 0.00 in
13:26 47.9 °F 25.3 °F 30.28 in SSW 7.4 mph 10.4 mph 41 % 0.00 in
13:31 48.2 °F 24.4 °F 30.28 in SE 6.7 mph 9.2 mph 39 % 0.00 in
13:36 47.5 °F 23.1 °F 30.28 in SSE 5.8 mph 11.5 mph 38 % 0.00 in
13:41 47.0 °F 24.5 °F 30.27 in South 4.6 mph 9.2 mph 41 % 0.00 in
13:46 47.2 °F 24.7 °F 30.27 in SSE 7.1 mph 16.1 mph 41 % 0.00 in
13:51 46.8 °F 24.9 °F 30.26 in SSW 6.4 mph 12.0 mph 42 % 0.00 in
13:56 46.6 °F 25.3 °F 30.26 in SE 8.6 mph 12.0 mph 43 % 0.00 in
14:01 46.3 °F 26.1 °F 30.26 in SSW 5.0 mph 11.5 mph 45 % 0.00 in
14:12 48.2 °F 26.2 °F 30.26 in South 5.9 mph 11.5 mph 42 % 0.00 in
14:27 48.9 °F 26.2 °F 30.25 in SW 5.1 mph 8.1 mph 41 % 0.00 in
14:32 48.5 °F 25.2 °F 30.24 in South 9.9 mph 15.0 mph 40 % 0.00 in
14:37 48.0 °F 27.1 °F 30.24 in South 6.2 mph 13.0 mph 44 % 0.00 in
14:42 48.2 °F 25.6 °F 30.23 in South 10.9 mph 15.0 mph 41 % 0.00 in
14:47 48.5 °F 27.0 °F 30.22 in SSE 3.7 mph 10.4 mph 43 % 0.00 in
14:52 48.2 °F 26.7 °F 30.22 in SSW 6.8 mph 15.0 mph 43 % 0.00 in
14:58 47.9 °F 27.0 °F 30.22 in SW 7.6 mph 8.0 mph 44 % 0.00 in
15:03 48.2 °F 26.7 °F 30.22 in South 4.3 mph 10.4 mph 43 % 0.00 in
15:08 47.6 °F 26.2 °F 30.21 in SSE 10.4 mph 15.0 mph 43 % 0.00 in
15:13 47.5 °F 27.2 °F 30.21 in SSE 5.5 mph 17.0 mph 45 % 0.00 in
15:18 47.4 °F 28.2 °F 30.20 in SSW 8.0 mph 18.4 mph 47 % 0.00 in
15:23 47.1 °F 27.4 °F 30.20 in South 8.1 mph 15.0 mph 46 % 0.00 in
15:28 46.9 °F 27.7 °F 30.19 in SSW 5.4 mph 11.5 mph 47 % 0.00 in
15:33 46.9 °F 28.2 °F 30.19 in South 6.3 mph 11.5 mph 48 % 0.00 in
15:38 46.8 °F 28.1 °F 30.18 in South 5.6 mph 12.7 mph 48 % 0.00 in
15:49 46.0 °F 28.4 °F 30.17 in South 4.7 mph 13.8 mph 50 % 0.00 in
15:54 45.8 °F 28.2 °F 30.18 in SW 7.9 mph 13.8 mph 50 % 0.00 in
16:04 45.4 °F 28.8 °F 30.17 in South 4.9 mph 8.1 mph 52 % 0.00 in
16:09 45.5 °F 29.3 °F 30.17 in SSE 7.1 mph 16.1 mph 53 % 0.00 in
16:14 45.4 °F 28.8 °F 30.17 in South 7.5 mph 12.7 mph 52 % 0.00 in
16:19 45.1 °F 29.0 °F 30.16 in SW 8.2 mph 16.1 mph 53 % 0.00 in
16:24 45.0 °F 28.4 °F 30.15 in SSW 5.8 mph 10.4 mph 52 % 0.00 in
16:29 44.9 °F 28.8 °F 30.15 in South 6.3 mph 18.4 mph 53 % 0.00 in
16:34 44.4 °F 28.3 °F 30.15 in South 6.6 mph 10.4 mph 53 % 0.00 in
16:40 44.2 °F 28.6 °F 30.14 in South 5.1 mph 9.0 mph 54 % 0.00 in
16:45 44.3 °F 29.1 °F 30.14 in SW 7.1 mph 11.5 mph 55 % 0.00 in
16:50 44.2 °F 29.5 °F 30.13 in SSW 5.2 mph 11.5 mph 56 % 0.00 in
16:55 44.2 °F 29.5 °F 30.13 in SSW 8.4 mph 16.0 mph 56 % 0.00 in
17:00 44.2 °F 28.6 °F 30.13 in SSE 11.4 mph 18.4 mph 54 % 0.00 in
17:05 44.0 °F 29.3 °F 30.13 in SSW 9.0 mph 18.4 mph 56 % 0.00 in
17:10 44.0 °F 29.3 °F 30.14 in SSE 6.6 mph 11.5 mph 56 % 0.00 in
17:15 44.2 °F 29.9 °F 30.13 in South 9.6 mph 16.1 mph 57 % 0.00 in
17:20 44.1 °F 29.4 °F 30.13 in South 5.7 mph 17.3 mph 56 % 0.00 in
17:25 43.9 °F 28.3 °F 30.12 in South 7.3 mph 15.0 mph 54 % 0.00 in
17:31 43.8 °F 28.7 °F 30.12 in SSE 11.8 mph 15.0 mph 55 % 0.00 in
17:36 43.7 °F 29.9 °F 30.11 in SSW 8.3 mph 11.5 mph 58 % 0.00 in
17:41 43.8 °F 30.0 °F 30.11 in South 6.3 mph 11.5 mph 58 % 0.00 in
17:46 44.0 °F 29.7 °F 30.11 in SSE 9.7 mph 16.0 mph 57 % 0.00 in
17:51 44.0 °F 29.7 °F 30.11 in South 7.7 mph 13.8 mph 57 % 0.00 in
17:56 44.1 °F 28.9 °F 30.11 in South 9.0 mph 17.3 mph 55 % 0.00 in
18:01 44.0 °F 28.4 °F 30.10 in South 5.9 mph 10.4 mph 54 % 0.00 in
18:06 44.0 °F 28.0 °F 30.10 in SE 5.7 mph 11.5 mph 53 % 0.00 in
18:11 44.0 °F 28.4 °F 30.10 in SSE 5.9 mph 9.2 mph 54 % 0.00 in
18:16 44.0 °F 28.4 °F 30.09 in SSW 3.9 mph 10.4 mph 54 % 0.00 in
18:22 43.9 °F 27.9 °F 30.09 in SSE 5.5 mph 13.0 mph 53 % 0.00 in
18:27 43.9 °F 28.3 °F 30.09 in SSW 5.7 mph 16.1 mph 54 % 0.00 in
18:32 43.8 °F 28.2 °F 30.08 in SSE 6.7 mph 11.5 mph 54 % 0.00 in
18:37 43.8 °F 28.7 °F 30.08 in SSW 5.0 mph 9.2 mph 55 % 0.00 in
18:42 43.8 °F 28.7 °F 30.08 in SSE 6.3 mph 15.0 mph 55 % 0.00 in
18:47 43.8 °F 29.1 °F 30.08 in South 5.7 mph 9.2 mph 56 % 0.00 in
18:52 43.7 °F 29.5 °F 30.08 in SSW 4.1 mph 10.4 mph 57 % 0.00 in
18:57 43.7 °F 29.9 °F 30.08 in South 4.6 mph 10.4 mph 58 % 0.00 in
19:02 43.6 °F 30.2 °F 30.07 in SSW 8.2 mph 11.5 mph 59 % 0.00 in
19:07 43.5 °F 30.1 °F 30.07 in SSW 3.9 mph 7.0 mph 59 % 0.00 in
19:18 43.3 °F 30.7 °F 30.07 in SSW 6.8 mph 11.5 mph 61 % 0.00 in
19:23 43.2 °F 31.1 °F 30.07 in SSW 3.5 mph 5.8 mph 62 % 0.00 in
19:28 43.2 °F 31.1 °F 30.07 in SSW 6.8 mph 11.5 mph 62 % 0.00 in
19:33 43.1 °F 31.4 °F 30.07 in South 2.8 mph 6.0 mph 63 % 0.00 in
19:53 43.1 °F 32.9 °F 30.06 in SSW 2.8 mph 6.9 mph 67 % 0.00 in
20:04 43.0 °F 33.5 °F 30.06 in SSE 4.9 mph 8.0 mph 69 % 0.00 in
20:09 43.1 °F 34.0 °F 30.06 in South 6.3 mph 10.4 mph 70 % 0.00 in
20:14 43.1 °F 34.3 °F 30.06 in South 6.5 mph 11.5 mph 71 % 0.00 in
20:19 43.2 °F 34.8 °F 30.05 in SSW 5.3 mph 8.1 mph 72 % 0.00 in
20:24 43.3 °F 35.2 °F 30.06 in SW 4.3 mph 7.0 mph 73 % 0.00 in
20:29 43.4 °F 35.3 °F 30.05 in SSW 2.6 mph 10.4 mph 73 % 0.00 in
20:39 43.6 °F 35.9 °F 30.06 in South 3.9 mph 10.0 mph 74 % 0.00 in
20:44 43.7 °F 36.0 °F 30.05 in South 3.4 mph 4.0 mph 74 % 0.00 in
20:49 43.8 °F 36.0 °F 30.05 in South 6.2 mph 8.1 mph 74 % 0.00 in
20:55 43.9 °F 36.5 °F 30.05 in SSW 4.9 mph 10.4 mph 75 % 0.00 in
21:00 44.0 °F 36.6 °F 30.05 in SSE 3.6 mph 5.8 mph 75 % 0.00 in
21:05 44.1 °F 37.0 °F 30.05 in SSW 4.4 mph 10.4 mph 76 % 0.00 in
21:10 44.2 °F 37.1 °F 30.05 in South 4.4 mph 6.9 mph 76 % 0.00 in
21:20 44.3 °F 37.5 °F 30.05 in SW 4.1 mph 9.2 mph 77 % 0.00 in
21:25 44.4 °F 37.6 °F 30.04 in SSE 3.8 mph 8.1 mph 77 % 0.00 in
21:30 44.5 °F 37.7 °F 30.03 in South 1.2 mph 2.3 mph 77 % 0.00 in
21:35 44.6 °F 38.2 °F 30.03 in SSW 4.2 mph 5.8 mph 78 % 0.00 in
21:46 44.6 °F 38.5 °F 30.02 in South 4.5 mph 6.9 mph 79 % 0.00 in
21:51 44.7 °F 38.6 °F 30.02 in SSW 2.1 mph 5.8 mph 79 % 0.00 in
21:56 44.8 °F 39.0 °F 30.02 in SSW 3.2 mph 5.0 mph 80 % 0.00 in
22:01 44.8 °F 39.0 °F 30.02 in SSE 2.8 mph 5.8 mph 80 % 0.00 in
22:06 44.9 °F 39.1 °F 30.01 in SE 4.0 mph 7.0 mph 80 % 0.00 in
22:11 44.9 °F 39.4 °F 30.01 in SSE 2.1 mph 4.6 mph 81 % 0.00 in
22:16 44.9 °F 39.4 °F 30.01 in SSW 4.1 mph 5.8 mph 81 % 0.00 in
22:21 44.9 °F 39.7 °F 30.01 in South 2.6 mph 6.0 mph 82 % 0.00 in
22:26 45.0 °F 40.1 °F 30.00 in South 1.2 mph 5.8 mph 83 % 0.00 in
22:31 45.0 °F 40.1 °F 30.00 in SSW 3.6 mph 5.0 mph 83 % 0.00 in
22:37 45.0 °F 40.1 °F 30.00 in SW 1.2 mph 3.5 mph 83 % 0.00 in
22:42 45.0 °F 40.5 °F 30.00 in South 2.6 mph 4.6 mph 84 % 0.00 in
22:47 45.0 °F 40.5 °F 30.00 in SSW 1.3 mph 3.5 mph 84 % 0.00 in
22:52 45.0 °F 40.5 °F 29.99 in SSW 0.8 mph 3.0 mph 84 % 0.00 in
22:57 45.0 °F 40.8 °F 29.99 in SSE 2.1 mph 3.5 mph 85 % 0.00 in
23:02 45.0 °F 40.8 °F 29.99 in South 2.5 mph 3.5 mph 85 % 0.00 in
23:07 45.1 °F 40.9 °F 29.99 in South 1.6 mph 4.0 mph 85 % 0.00 in
23:12 45.2 °F 41.3 °F 29.98 in SSW 4.7 mph 5.8 mph 86 % 0.00 in
23:17 45.2 °F 41.6 °F 29.98 in South 2.8 mph 4.6 mph 87 % 0.00 in
23:22 45.3 °F 41.7 °F 29.98 in SSE 1.0 mph 3.5 mph 87 % 0.00 in
23:28 45.4 °F 41.8 °F 29.98 in SSW 3.5 mph 5.8 mph 87 % 0.00 in
23:33 45.5 °F 41.9 °F 29.98 in SSE 0.9 mph 5.8 mph 87 % 0.00 in
23:38 45.5 °F 41.9 °F 29.97 in SSE 1.3 mph 3.0 mph 87 % 0.00 in
23:43 45.5 °F 42.2 °F 29.98 in South 3.5 mph 4.6 mph 88 % 0.00 in
23:53 45.7 °F 42.3 °F 29.97 in South 1.5 mph 4.0 mph 88 % 0.00 in
23:58 45.9 °F 42.5 °F 29.97 in South 1.7 mph 4.6 mph 88 % 0.00 in
Crab Meadow Weather
Compliments of Weather Underground - 2.75 mb

Script developed by  Jim McMurry - jmcmurry@mwt.net Adapted for the template by  Wim van der Kuil - Leuven-Template.eu

Weather Terms: Tornado Watch - Conditions are favorable for the development of severe thunderstorms and tornadoes in and close to the watch area. These watches are issued for large areas by the Storm Prediction Center in Norman, Oklahoma, and are usually valid for four to six hours.